| time (UTC) | temp F | wind direction | speed knots | gust knots | rain 1hr in | rain 24hr in | rain mn in | humidity % | barometer mb |
| 20260505200341 | 79 | 138 | 5.2 | 13.0 | 0.00 | 0.00 | 0.00 | 65 | 1019.1 |
| 20260505195328 | 79 | 156 | 1.7 | 12.2 | 0.00 | 0.00 | 0.00 | 66 | 1019.0 |
| 20260505194319 | 79 | 144 | 1.7 | 10.4 | 0.00 | 0.00 | 0.00 | 65 | 1019.4 |
| 20260505193339 | 79 | 184 | 0.9 | 8.7 | 0.00 | 0.00 | 0.00 | 66 | 1019.6 |
| 20260505192327 | 79 | 168 | 3.5 | 12.2 | 0.00 | 0.00 | 0.00 | 65 | 1020.1 |
| 20260505191319 | 79 | 144 | 1.7 | 8.7 | 0.00 | 0.00 | 0.00 | 63 | 1020.2 |
| 20260505190337 | 80 | 176 | 2.6 | 9.6 | 0.00 | 0.00 | 0.00 | 62 | 1020.3 |
| 20260505185326 | 79 | 224 | 1.7 | 8.7 | 0.00 | 0.00 | 0.00 | 63 | 1020.4 |
| 20260505184358 | 79 | 147 | 0.9 | 10.4 | 0.00 | 0.00 | 0.00 | 63 | 1020.6 |
| 20260505183327 | 79 | 212 | 1.7 | 8.7 | 0.00 | 0.00 | 0.00 | 63 | 1020.4 |
| 20260505182341 | 79 | 177 | 1.7 | 10.4 | 0.00 | 0.00 | 0.00 | 64 | 1020.3 |
| 20260505181328 | 79 | 122 | 0.9 | 8.7 | 0.00 | 0.00 | 0.00 | 64 | 1020.2 |
| 20260505180341 | 79 | 216 | 1.7 | 7.0 | 0.00 | 0.00 | 0.00 | 63 | 1020.2 |
| 20260505175333 | 80 | 120 | 2.6 | 8.7 | 0.00 | 0.00 | 0.00 | 63 | 1020.2 |
| 20260505174322 | 79 | 216 | 2.6 | 9.6 | 0.00 | 0.00 | 0.00 | 64 | 1020.2 |
| 20260505173338 | 79 | 158 | 2.6 | 10.4 | 0.00 | 0.00 | 0.00 | 66 | 1020.2 |
| 20260505172324 | 79 | 162 | 0.9 | 7.8 | 0.00 | 0.00 | 0.00 | 66 | 1020.2 |
| 20260505171317 | 79 | 134 | 1.7 | 7.8 | 0.00 | 0.00 | 0.00 | 68 | 1020.5 |
| 20260505170334 | 79 | 145 | 2.6 | 7.8 | 0.00 | 0.00 | 0.00 | 68 | 1020.6 |
| 20260505165320 | 79 | 193 | 3.5 | 10.4 | 0.00 | 0.00 | 0.00 | 68 | 1020.7 |
| 20260505164334 | 79 | 161 | 2.6 | 7.8 | 0.00 | 0.00 | 0.00 | 68 | 1020.8 |
| 20260505163322 | 78 | 165 | 3.5 | 7.0 | 0.00 | 0.00 | 0.00 | 69 | 1021.1 |
| 20260505162336 | 78 | 153 | 0.9 | 5.2 | 0.00 | 0.00 | 0.00 | 72 | 1021.1 |
| 20260505161325 | 78 | 195 | 3.5 | 7.0 | 0.00 | 0.00 | 0.00 | 69 | 1021.1 |
| 20260505160359 | 79 | 175 | 3.5 | 7.8 | 0.00 | 0.00 | 0.00 | 70 | 1021.3 |
| 20260505153333 | 77 | 134 | 2.6 | 6.1 | 0.00 | 0.00 | 0.00 | 72 | 1021.3 |
| 20260505152320 | 76 | 137 | 0.9 | 7.8 | 0.00 | 0.00 | 0.00 | 72 | 1021.4 |
| 20260505151334 | 77 | 170 | 3.5 | 7.0 | 0.00 | 0.00 | 0.00 | 73 | 1021.3 |
| 20260505150321 | 76 | 181 | 2.6 | 7.8 | 0.00 | 0.00 | 0.00 | 73 | 1021.3 |
| 20260505140329 | 72 | 212 | 1.7 | 7.8 | 0.00 | 0.00 | 0.00 | 80 | 1021.1 |
| 20260505124330 | 60 | 167 | 0.0 | 0.0 | 0.00 | 0.00 | 0.00 | 100 | 1020.9 |
| 20260505123319 | 58 | 167 | 0.0 | 0.0 | 0.00 | 0.00 | 0.00 | 100 | 1021.0 |
| 20260505122333 | 57 | 167 | 0.0 | 0.0 | 0.00 | 0.00 | 0.00 | 100 | 1020.9 |
| 20260505121319 | 56 | 167 | 0.0 | 0.0 | 0.00 | 0.00 | 0.00 | 100 | 1020.9 |
| 20260505120334 | 54 | 167 | 0.0 | 0.9 | 0.00 | 0.00 | 0.00 | 100 | 1020.9 |
| 20260505115322 | 53 | 167 | 0.0 | 0.0 | 0.00 | 0.00 | 0.00 | 100 | 1020.7 |
| 20260505114338 | 53 | 167 | 0.0 | 0.0 | 0.00 | 0.00 | 0.00 | 100 | 1020.7 |
| 20260505113328 | 52 | 167 | 0.0 | 0.0 | 0.00 | 0.00 | 0.00 | 100 | 1020.7 |
| 20260505112341 | 52 | 167 | 0.0 | 0.0 | 0.00 | 0.00 | 0.00 | 100 | 1020.5 |
| 20260505111328 | 51 | 167 | 0.0 | 0.0 | 0.00 | 0.00 | 0.00 | 100 | 1020.6 |
| 20260505110318 | 51 | 167 | 0.0 | 0.0 | 0.00 | 0.00 | 0.00 | 100 | 1020.5 |
| 20260505101324 | 52 | 167 | 0.0 | 0.0 | 0.00 | 0.00 | 0.00 | 100 | 1019.7 |
| 20260505100339 | 52 | 167 | 0.0 | 0.0 | 0.00 | 0.00 | 0.00 | 100 | 1019.7 |
| 20260505095333 | 52 | 167 | 0.0 | 0.0 | 0.00 | 0.00 | 0.00 | 100 | 1019.6 |
| 20260505094322 | 52 | 167 | 0.0 | 0.0 | 0.00 | 0.00 | 0.00 | 100 | 1019.6 |
| 20260505093339 | 52 | 167 | 0.0 | 0.0 | 0.00 | 0.00 | 0.00 | 100 | 1019.6 |
| 20260505092324 | 52 | 167 | 0.0 | 0.0 | 0.00 | 0.00 | 0.00 | 100 | 1019.6 |
| 20260505091339 | 52 | 167 | 0.0 | 0.0 | 0.00 | 0.00 | 0.00 | 100 | 1019.4 |
| 20260505090331 | 53 | 167 | 0.0 | 0.0 | 0.00 | 0.00 | 0.00 | 100 | 1019.5 |
| 20260505085345 | 53 | 167 | 0.0 | 0.0 | 0.00 | 0.00 | 0.00 | 100 | 1019.5 |
| 20260505084341 | 53 | 167 | 0.0 | 0.0 | 0.00 | 0.00 | 0.00 | 100 | 1019.4 |
| 20260505083337 | 53 | 167 | 0.0 | 0.0 | 0.00 | 0.00 | 0.00 | 100 | 1019.3 |
| 20260505082351 | 53 | 167 | 0.0 | 0.0 | 0.00 | 0.00 | 0.00 | 100 | 1019.2 |
| 20260505081345 | 53 | 167 | 0.0 | 0.0 | 0.00 | 0.00 | 0.00 | 100 | 1019.1 |
| 20260505080339 | 53 | 167 | 0.0 | 0.0 | 0.00 | 0.00 | 0.00 | 100 | 1019.1 |
| 20260504221319 | 73 | 149 | 4.3 | 13.0 | 0.00 | 0.00 | 0.00 | 64 | 1019.1 |
| 20260504220354 | 73 | 214 | 0.9 | 10.4 | 0.00 | 0.00 | 0.00 | 65 | 1019.1 |
| 20260504215325 | 73 | 140 | 0.0 | 7.0 | 0.00 | 0.00 | 0.00 | 64 | 1019.0 |
| 20260504214334 | 73 | 199 | 1.7 | 9.6 | 0.00 | 0.00 | 0.00 | 63 | 1019.0 |
| 20260504213326 | 74 | 204 | 2.6 | 11.3 | 0.00 | 0.00 | 0.00 | 62 | 1019.0 |
| 20260504212343 | 74 | 181 | 3.5 | 13.0 | 0.00 | 0.00 | 0.00 | 61 | 1019.0 |
| 20260504211330 | 74 | 128 | 0.0 | 9.6 | 0.00 | 0.00 | 0.00 | 62 | 1018.9 |
| 20260504210319 | 75 | 139 | 0.9 | 10.4 | 0.00 | 0.00 | 0.00 | 60 | 1018.9 |
| 20260504205332 | 76 | 181 | 0.9 | 13.0 | 0.00 | 0.00 | 0.00 | 59 | 1018.9 |
| 20260504204318 | 77 | 192 | 0.0 | 11.3 | 0.00 | 0.00 | 0.00 | 60 | 1018.8 |
| 20260504203354 | 77 | 200 | 3.5 | 12.2 | 0.00 | 0.00 | 0.00 | 57 | 1018.8 |
| 20260504202319 | 78 | 150 | 2.6 | 8.7 | 0.00 | 0.00 | 0.00 | 55 | 1018.8 |
| 20260504201332 | 79 | 197 | 0.9 | 7.8 | 0.00 | 0.00 | 0.00 | 55 | 1018.9 |